| time (UTC) | temp F | wind direction | speed MPH | gust MPH | rain 1hr in | rain 24hr in | rain mn in | humidity % | barometer mb |
| 20260906043330 | 49 | 336 | 7.0 | 14.0 | 0.00 | 0.00 | 0.00 | 80 | 1001.9 |
| 20260906042445 | 49 | 339 | 7.0 | 13.0 | 0.00 | 0.00 | 0.00 | 81 | 1001.8 |
| 20260906041610 | 49 | 336 | 6.0 | 12.0 | 0.00 | 0.00 | 0.00 | 81 | 1001.7 |
| 20260906040645 | 49 | 336 | 7.0 | 16.0 | 0.00 | 0.00 | 0.00 | 82 | 1001.6 |
| 20260906035815 | 49 | 338 | 8.0 | 16.0 | 0.00 | 0.00 | 0.00 | 84 | 1001.6 |
| 20260906034852 | 49 | 342 | 10.0 | 22.0 | 0.00 | 0.00 | 0.00 | 86 | 1001.4 |
| 20260906033935 | 49 | 330 | 7.0 | 22.0 | 0.00 | 0.00 | 0.00 | 87 | 1000.9 |
| 20260906033050 | 49 | 319 | 4.0 | 9.0 | 0.00 | 0.00 | 0.00 | 89 | 1001.2 |
| 20260906032210 | 49 | 323 | 5.0 | 11.0 | 0.00 | 0.00 | 0.00 | 88 | 1001.0 |
| 20260906031320 | 49 | 323 | 5.0 | 10.0 | 0.00 | 0.00 | 0.00 | 87 | 1000.8 |
| 20260906030415 | 49 | 316 | 4.0 | 10.0 | 0.00 | 0.00 | 0.00 | 87 | 1000.7 |
| 20260906025525 | 49 | 311 | 4.0 | 10.0 | 0.00 | 0.00 | 0.00 | 86 | 1000.6 |
| 20260906024616 | 49 | 296 | 4.0 | 10.0 | 0.00 | 0.00 | 0.00 | 87 | 1000.5 |
| 20260906023705 | 49 | 298 | 4.0 | 8.0 | 0.00 | 0.00 | 0.00 | 87 | 1000.4 |
| 20260906022800 | 50 | 307 | 4.0 | 10.0 | 0.00 | 0.00 | 0.00 | 86 | 1000.3 |
| 20260906021920 | 50 | 309 | 4.0 | 9.0 | 0.00 | 0.00 | 0.00 | 86 | 1000.1 |
| 20260906021020 | 50 | 335 | 4.0 | 11.0 | 0.00 | 0.00 | 0.00 | 86 | 1000.0 |
| 20260906020135 | 50 | 323 | 4.0 | 7.0 | 0.00 | 0.00 | 0.00 | 86 | 999.9 |
| 20260906015235 | 50 | 325 | 4.0 | 10.0 | 0.00 | 0.00 | 0.00 | 87 | 999.8 |
| 20260906014310 | 50 | 312 | 4.0 | 8.0 | 0.00 | 0.00 | 0.00 | 87 | 999.8 |
| 20260906013420 | 50 | 320 | 4.0 | 11.0 | 0.00 | 0.00 | 0.00 | 87 | 999.7 |
| 20260906012445 | 50 | 318 | 3.0 | 8.0 | 0.00 | 0.00 | 0.00 | 87 | 999.6 |
| 20260906011545 | 50 | 319 | 4.0 | 8.0 | 0.00 | 0.00 | 0.00 | 87 | 999.6 |
| 20260906010715 | 50 | 326 | 4.0 | 9.0 | 0.00 | 0.00 | 0.00 | 86 | 999.5 |
| 20260906005820 | 50 | 327 | 5.0 | 10.0 | 0.00 | 0.00 | 0.00 | 86 | 999.5 |
| 20260906004911 | 49 | 317 | 4.0 | 9.0 | 0.00 | 0.00 | 0.00 | 87 | 999.4 |
| 20260906004010 | 49 | 320 | 4.0 | 7.0 | 0.00 | 0.00 | 0.00 | 87 | 999.4 |
| 20260906003100 | 49 | 318 | 3.0 | 6.0 | 0.00 | 0.00 | 0.00 | 88 | 999.3 |
| 20260906002141 | 48 | 315 | 3.0 | 7.0 | 0.00 | 0.00 | 0.00 | 88 | 999.3 |
| 20260906001300 | 48 | 312 | 3.0 | 7.0 | 0.00 | 0.00 | 0.00 | 88 | 999.2 |
| 20260906000350 | 49 | 327 | 4.0 | 7.0 | 0.00 | 0.00 | 0.00 | 88 | 999.1 |
| 20260905235450 | 49 | 313 | 3.0 | 7.0 | 0.00 | 0.00 | 0.00 | 88 | 999.0 |
| 20260905234515 | 49 | 321 | 3.0 | 7.0 | 0.00 | 0.00 | 0.00 | 87 | 998.8 |
| 20260905233543 | 49 | 324 | 3.0 | 8.0 | 0.00 | 0.00 | 0.00 | 87 | 998.6 |
| 20260905232649 | 50 | 329 | 4.0 | 9.0 | 0.00 | 0.00 | 0.00 | 86 | 998.4 |
| 20260905231730 | 50 | 323 | 4.0 | 10.0 | 0.00 | 0.00 | 0.00 | 87 | 998.3 |
| 20260905230845 | 50 | 320 | 4.0 | 10.0 | 0.00 | 0.00 | 0.00 | 87 | 998.2 |
| 20260905225934 | 50 | 317 | 4.0 | 7.0 | 0.00 | 0.00 | 0.00 | 86 | 998.1 |
| 20260905224950 | 51 | 326 | 4.0 | 9.0 | 0.00 | 0.00 | 0.00 | 86 | 997.9 |
| 20260905224040 | 51 | 329 | 5.0 | 9.0 | 0.00 | 0.00 | 0.00 | 85 | 997.8 |
| 20260905223150 | 51 | 331 | 5.0 | 10.0 | 0.00 | 0.00 | 0.00 | 86 | 997.6 |
| 20260905222227 | 51 | 330 | 4.0 | 9.0 | 0.00 | 0.00 | 0.00 | 86 | 997.6 |
| 20260905221330 | 51 | 328 | 5.0 | 11.0 | 0.00 | 0.00 | 0.00 | 87 | 997.6 |
| 20260905220450 | 51 | 321 | 4.0 | 9.0 | 0.00 | 0.00 | 0.00 | 87 | 997.5 |
| 20260905215612 | 51 | 332 | 5.0 | 9.0 | 0.00 | 0.00 | 0.00 | 86 | 997.4 |
| 20260905214720 | 52 | 332 | 4.0 | 10.0 | 0.00 | 0.00 | 0.00 | 86 | 997.3 |
| 20260905213900 | 52 | 322 | 4.0 | 10.0 | 0.00 | 0.00 | 0.00 | 85 | 997.2 |
| 20260905213005 | 52 | 319 | 3.0 | 8.0 | 0.00 | 0.00 | 0.00 | 84 | 997.1 |
| 20260905212132 | 53 | 333 | 4.0 | 7.0 | 0.00 | 0.00 | 0.00 | 83 | 996.9 |
| 20260905211252 | 53 | 336 | 5.0 | 8.0 | 0.00 | 0.00 | 0.00 | 81 | 996.7 |
| 20260905210445 | 53 | 340 | 5.0 | 11.0 | 0.00 | 0.00 | 0.00 | 81 | 996.7 |
| 20260905205550 | 53 | 343 | 5.0 | 10.0 | 0.00 | 0.00 | 0.00 | 81 | 996.5 |
| 20260905204700 | 54 | 333 | 5.0 | 10.0 | 0.00 | 0.00 | 0.00 | 81 | 996.4 |
| 20260905203715 | 54 | 335 | 4.0 | 8.0 | 0.00 | 0.00 | 0.00 | 82 | 996.2 |
| 20260905202852 | 54 | 334 | 5.0 | 10.0 | 0.00 | 0.00 | 0.00 | 81 | 996.0 |
| 20260905202012 | 55 | 331 | 4.0 | 8.0 | 0.00 | 0.00 | 0.00 | 81 | 995.9 |
| 20260905201130 | 55 | 334 | 4.0 | 9.0 | 0.00 | 0.00 | 0.00 | 80 | 995.7 |
| 20260905200225 | 55 | 328 | 4.0 | 8.0 | 0.00 | 0.00 | 0.00 | 80 | 995.4 |
| 20260905195355 | 55 | 322 | 4.0 | 9.0 | 0.00 | 0.00 | 0.00 | 79 | 995.3 |
| 20260905194459 | 56 | 327 | 4.0 | 9.0 | 0.00 | 0.00 | 0.00 | 78 | 995.3 |
| 20260905193605 | 56 | 323 | 4.0 | 10.0 | 0.00 | 0.00 | 0.00 | 78 | 995.2 |
| 20260905192745 | 56 | 327 | 4.0 | 8.0 | 0.00 | 0.00 | 0.00 | 77 | 995.1 |
| 20260905191928 | 56 | 323 | 4.0 | 8.0 | 0.00 | 0.00 | 0.00 | 77 | 995.0 |
| 20260905191025 | 57 | 317 | 3.0 | 8.0 | 0.00 | 0.00 | 0.00 | 76 | 994.8 |
| 20260905190105 | 57 | 313 | 3.0 | 6.0 | 0.00 | 0.00 | 0.00 | 75 | 994.8 |
| 20260905185150 | 57 | 309 | 2.0 | 4.0 | 0.00 | 0.00 | 0.00 | 74 | 994.7 |
| 20260905184235 | 57 | 319 | 3.0 | 9.0 | 0.00 | 0.00 | 0.00 | 73 | 994.6 |
| 20260905183330 | 57 | 321 | 3.0 | 7.0 | 0.00 | 0.00 | 0.00 | 73 | 994.5 |
| 20260905182444 | 57 | 320 | 3.0 | 7.0 | 0.00 | 0.00 | 0.00 | 72 | 994.4 |
| 20260905181612 | 57 | 310 | 3.0 | 7.0 | 0.00 | 0.00 | 0.00 | 71 | 994.3 |
| 20260905180655 | 58 | 309 | 2.0 | 7.0 | 0.00 | 0.00 | 0.00 | 71 | 994.2 |
| 20260905175815 | 58 | 312 | 2.0 | 4.0 | 0.00 | 0.00 | 0.00 | 70 | 994.1 |
| 20260905175000 | 58 | 317 | 2.0 | 4.0 | 0.00 | 0.00 | 0.00 | 70 | 994.0 |
| 20260905174020 | 58 | 300 | 1.0 | 4.0 | 0.00 | 0.00 | 0.00 | 70 | 994.0 |
| 20260905173125 | 58 | 294 | 1.0 | 4.0 | 0.00 | 0.00 | 0.00 | 70 | 993.9 |
| 20260905172245 | 59 | 294 | 1.0 | 4.0 | 0.00 | 0.00 | 0.00 | 68 | 993.7 |
| 20260905171335 | 59 | 289 | 1.0 | 4.0 | 0.00 | 0.00 | 0.00 | 68 | 993.6 |
| 20260905170500 | 59 | 290 | 1.0 | 4.0 | 0.00 | 0.00 | 0.00 | 67 | 993.4 |
| 20260905165605 | 59 | 291 | 2.0 | 5.0 | 0.00 | 0.00 | 0.00 | 66 | 993.3 |
| 20260905164712 | 60 | 287 | 2.0 | 5.0 | 0.00 | 0.00 | 0.00 | 65 | 993.2 |
| 20260905163735 | 60 | 305 | 2.0 | 6.0 | 0.00 | 0.00 | 0.00 | 64 | 992.9 |
| 20260905162810 | 60 | 290 | 2.0 | 6.0 | 0.00 | 0.00 | 0.00 | 62 | 992.8 |
| 20260905161916 | 61 | 292 | 3.0 | 7.0 | 0.00 | 0.00 | 0.00 | 61 | 992.5 |
| 20260905161030 | 61 | 298 | 3.0 | 7.0 | 0.00 | 0.00 | 0.00 | 59 | 992.2 |
| 20260905160115 | 62 | 285 | 3.0 | 9.0 | 0.00 | 0.00 | 0.00 | 58 | 992.0 |
| 20260905155150 | 62 | 287 | 3.0 | 7.0 | 0.00 | 0.00 | 0.00 | 58 | 991.9 |
| 20260905154312 | 62 | 280 | 3.0 | 7.0 | 0.00 | 0.00 | 0.00 | 59 | 991.8 |
| 20260905153355 | 62 | 281 | 4.0 | 8.0 | 0.00 | 0.00 | 0.00 | 60 | 991.9 |
| 20260905152455 | 61 | 279 | 3.0 | 8.0 | 0.00 | 0.00 | 0.00 | 60 | 991.9 |
| 20260905151632 | 62 | 295 | 4.0 | 9.0 | 0.00 | 0.00 | 0.00 | 58 | 991.7 |
| 20260905150752 | 62 | 293 | 4.0 | 9.0 | 0.00 | 0.00 | 0.00 | 57 | 991.6 |
| 20260905145845 | 62 | 289 | 3.0 | 7.0 | 0.00 | 0.00 | 0.00 | 58 | 991.6 |
| 20260905144944 | 62 | 273 | 3.0 | 6.0 | 0.00 | 0.00 | 0.00 | 57 | 991.5 |
| 20260905144040 | 62 | 288 | 2.0 | 5.0 | 0.00 | 0.00 | 0.00 | 56 | 991.4 |
| 20260905143130 | 62 | 297 | 3.0 | 10.0 | 0.00 | 0.00 | 0.00 | 54 | 991.3 |
| 20260905142250 | 62 | 311 | 3.0 | 8.0 | 0.00 | 0.00 | 0.00 | 54 | 991.2 |
| 20260905141340 | 62 | 307 | 4.0 | 10.0 | 0.00 | 0.00 | 0.00 | 53 | 991.1 |
| 20260905140445 | 63 | 324 | 4.0 | 9.0 | 0.00 | 0.00 | 0.00 | 51 | 990.9 |
| 20260905135550 | 63 | 338 | 4.0 | 7.0 | 0.00 | 0.00 | 0.00 | 51 | 990.7 |
| 20260905134655 | 63 | 329 | 4.0 | 9.0 | 0.00 | 0.00 | 0.00 | 49 | 990.6 |
| 20260905133800 | 64 | 312 | 4.0 | 9.0 | 0.00 | 0.00 | 0.00 | 48 | 990.4 |
| 20260905132920 | 64 | 297 | 4.0 | 9.0 | 0.00 | 0.00 | 0.00 | 49 | 990.4 |
| 20260905132000 | 64 | 328 | 6.0 | 12.0 | 0.00 | 0.00 | 0.00 | 49 | 990.6 |
| 20260905131056 | 63 | 335 | 6.0 | 12.0 | 0.00 | 0.00 | 0.00 | 50 | 990.6 |
| 20260905130225 | 63 | 333 | 6.0 | 12.0 | 0.00 | 0.00 | 0.00 | 51 | 990.5 |
| 20260905125232 | 64 | 327 | 3.0 | 10.0 | 0.00 | 0.00 | 0.00 | 53 | 990.5 |
| 20260905124323 | 62 | 329 | 3.0 | 9.0 | 0.00 | 0.00 | 0.00 | 56 | 990.8 |
| 20260905123452 | 62 | 289 | 4.0 | 12.0 | 0.00 | 0.00 | 0.00 | 56 | 990.6 |
| 20260905122606 | 63 | 278 | 2.0 | 8.0 | 0.00 | 0.00 | 0.00 | 55 | 990.3 |
| 20260905121725 | 64 | 250 | 2.0 | 5.0 | 0.00 | 0.00 | 0.00 | 53 | 990.1 |
| 20260905120832 | 64 | 232 | 2.0 | 8.0 | 0.00 | 0.00 | 0.00 | 57 | 989.9 |
| 20260905115950 | 64 | 253 | 3.0 | 6.0 | 0.00 | 0.00 | 0.00 | 55 | 989.9 |
| 20260905115030 | 64 | 235 | 3.0 | 7.0 | 0.00 | 0.00 | 0.00 | 56 | 990.0 |
| 20260905114140 | 63 | 224 | 3.0 | 7.0 | 0.00 | 0.00 | 0.00 | 59 | 990.2 |
| 20260905113300 | 62 | 234 | 3.0 | 7.0 | 0.00 | 0.00 | 0.00 | 60 | 990.4 |
| 20260905112400 | 61 | 252 | 2.0 | 6.0 | 0.00 | 0.00 | 0.00 | 61 | 990.5 |
| 20260905111455 | 61 | 251 | 2.0 | 5.0 | 0.00 | 0.00 | 0.00 | 61 | 990.6 |
| 20260905110525 | 61 | 264 | 3.0 | 5.0 | 0.00 | 0.00 | 0.00 | 59 | 990.5 |
| 20260905105632 | 61 | 278 | 2.0 | 5.0 | 0.00 | 0.00 | 0.00 | 59 | 990.4 |
| 20260905104715 | 61 | 269 | 2.0 | 5.0 | 0.00 | 0.00 | 0.00 | 62 | 990.5 |
| 20260905103810 | 60 | 265 | 1.0 | 4.0 | 0.00 | 0.00 | 0.00 | 61 | 990.4 |
| 20260905102845 | 60 | 331 | 3.0 | 8.0 | 0.00 | 0.00 | 0.00 | 62 | 990.3 |
| 20260905101943 | 61 | 339 | 3.0 | 9.0 | 0.00 | 0.00 | 0.00 | 61 | 990.0 |
| 20260905101100 | 62 | 344 | 2.0 | 7.0 | 0.00 | 0.00 | 0.00 | 58 | 989.6 |
| 20260905100210 | 62 | 323 | 2.0 | 7.0 | 0.00 | 0.00 | 0.00 | 57 | 989.4 |
| 20260905095310 | 62 | 294 | 2.0 | 5.0 | 0.00 | 0.00 | 0.00 | 59 | 989.5 |
| 20260905094405 | 62 | 286 | 2.0 | 6.0 | 0.00 | 0.00 | 0.00 | 60 | 989.4 |
| 20260905093505 | 62 | 266 | 2.0 | 6.0 | 0.00 | 0.00 | 0.00 | 58 | 989.3 |
| 20260905092550 | 62 | 136 | 2.0 | 4.0 | 0.00 | 0.00 | 0.00 | 62 | 989.6 |
| 20260905091700 | 62 | 258 | 1.0 | 6.0 | 0.00 | 0.00 | 0.00 | 64 | 989.8 |
| 20260905090740 | 60 | 284 | 3.0 | 7.0 | 0.00 | 0.00 | 0.00 | 64 | 990.0 |
| 20260905085845 | 60 | 316 | 1.0 | 4.0 | 0.00 | 0.00 | 0.00 | 66 | 989.9 |
| 20260905085000 | 59 | 302 | 2.0 | 6.0 | 0.00 | 0.00 | 0.00 | 69 | 990.1 |
| 20260905084037 | 59 | 283 | 2.0 | 6.0 | 0.00 | 0.00 | 0.00 | 71 | 990.2 |
| 20260905083200 | 59 | 276 | 1.0 | 4.0 | 0.00 | 0.00 | 0.00 | 72 | 990.2 |
| 20260905082310 | 59 | 324 | 1.0 | 4.0 | 0.00 | 0.00 | 0.00 | 73 | 990.2 |
| 20260905081425 | 58 | 334 | 1.0 | 3.0 | 0.00 | 0.00 | 0.00 | 74 | 990.3 |
| 20260905080545 | 57 | 349 | 1.0 | 4.0 | 0.00 | 0.00 | 0.00 | 77 | 990.5 |
| 20260905075700 | 56 | 349 | 2.0 | 5.0 | 0.00 | 0.00 | 0.00 | 80 | 990.8 |
| 20260905074752 | 55 | 350 | 2.0 | 5.0 | 0.00 | 0.00 | 0.00 | 82 | 991.0 |
| 20260905073805 | 54 | 345 | 2.0 | 5.0 | 0.00 | 0.00 | 0.00 | 84 | 991.1 |
| 20260905072920 | 53 | 346 | 3.0 | 5.0 | 0.00 | 0.00 | 0.00 | 86 | 991.3 |
| 20260905072045 | 52 | 350 | 3.0 | 5.0 | 0.00 | 0.00 | 0.00 | 87 | 991.5 |
| 20260905071140 | 52 | 354 | 3.0 | 6.0 | 0.00 | 0.00 | 0.00 | 88 | 991.5 |
| 20260905070235 | 52 | 346 | 3.0 | 6.0 | 0.00 | 0.00 | 0.00 | 87 | 991.4 |
| 20260905065320 | 52 | 348 | 2.0 | 5.0 | 0.00 | 0.00 | 0.00 | 87 | 991.4 |
| 20260905064350 | 51 | 350 | 3.0 | 4.0 | 0.00 | 0.00 | 0.00 | 88 | 991.5 |
| 20260905063430 | 51 | 355 | 3.0 | 4.0 | 0.00 | 0.00 | 0.00 | 88 | 991.6 |
| 20260905062515 | 50 | 347 | 2.0 | 4.0 | 0.00 | 0.00 | 0.00 | 88 | 991.7 |
| 20260905061620 | 49 | 338 | 2.0 | 3.0 | 0.00 | 0.00 | 0.00 | 89 | 991.8 |
| 20260905060719 | 48 | 334 | 2.0 | 4.0 | 0.00 | 0.00 | 0.00 | 90 | 991.9 |
| 20260905055825 | 48 | 341 | 2.0 | 3.0 | 0.00 | 0.00 | 0.00 | 90 | 992.0 |
| 20260905054914 | 48 | 345 | 1.0 | 2.0 | 0.00 | 0.00 | 0.00 | 92 | 992.0 |
| 20260905054008 | 47 | 335 | 0.0 | 1.0 | 0.00 | 0.00 | 0.00 | 92 | 992.2 |
| 20260905053052 | 46 | 320 | 1.0 | 2.0 | 0.00 | 0.00 | 0.00 | 92 | 992.6 |
| 20260905052140 | 45 | 326 | 1.0 | 3.0 | 0.00 | 0.00 | 0.00 | 92 | 992.8 |
| 20260905051245 | 44 | 336 | 2.0 | 4.0 | 0.00 | 0.00 | 0.00 | 92 | 992.8 |
| 20260905050332 | 44 | 330 | 2.0 | 4.0 | 0.00 | 0.00 | 0.00 | 92 | 992.8 |
| 20260905045420 | 44 | 326 | 2.0 | 4.0 | 0.00 | 0.00 | 0.00 | 92 | 992.9 |
| 20260905044519 | 44 | 341 | 2.0 | 3.0 | 0.00 | 0.00 | 0.00 | 92 | 992.9 |
| 20260905043625 | 44 | 335 | 2.0 | 3.0 | 0.00 | 0.00 | 0.00 | 92 | 992.9 |